Regional Weather Roundup
Issued by NWS

Home | Current Version | Previous Version | Text Only | Print | Product List | Glossary Off
Versions: 1 2 3 4 5 6 7 8 9 10 11 12 13 14 15 16 17 18 19 20 21 22 23 24 25 26 27 28 29 30 31 32 33 34 35 36 37 38 39 40 41 42 43 44 45 46 47 48 49 50

000
ASUS43 KMKX 230700
RWRWI

WISCONSIN REGIONAL WEATHER ROUNDUP
NATIONAL WEATHER SERVICE MILWAUKEE/SULLIVAN WI
200 AM CDT WED MAY 23 2018

NOTE: "FAIR" INDICATES FEW OR NO CLOUDS BELOW 12,000 FEET WITH NO
SIGNIFICANT WEATHER AND/OR OBSTRUCTIONS TO VISIBILITY.

WIZ001-002-006>008-014>016-023>028-230800-
NORTHWEST WISCONSIN

CITY           SKY/WX    TMP DP  RH WIND       PRES   REMARKS
SUPERIOR ARPT  FAIR      55  53  95 S3        30.07R
ASHLAND        FAIR      56  53  90 SW5       30.08R
HAYWARD        FOG       49  48  97 CALM      30.10S VSB 3/4
SIREN          FAIR      52  49  91 CALM      30.09R
CUMBERLAND     FOG       52  52 100 CALM      30.10S VSB 1
RICE LAKE      FAIR      53  52  97 CALM      30.12R
CHETEK         CLOUDY    52  52 100 CALM      30.10S FOG
LADYSMITH      FAIR      53  51  94 CALM      30.12S
EAU CLAIRE     FOG       52  52 100 CALM      30.09S VSB 1/2
MENOMONIE      FAIR      56  55  99 CALM      30.10S FOG
NEW RICHMOND   FAIR      57  55  92 S5        30.09S
OSCEOLA        FAIR      53  51  92 CALM      30.11S
$$

WIZ003>005-009-010-017-018-230800-
NORTH CENTRAL WISCONSIN

CITY           SKY/WX    TMP DP  RH WIND       PRES   REMARKS
MANITOWISH WTR FOG       50  50 100 CALM      30.11R VSB 1
ARBOR VITAE    FAIR      55  53  94 CALM      30.11R
WOODRUFF       FAIR      55  53  94 CALM      30.11R
RHINELANDER    FAIR      53  51  93 CALM      30.11R FOG
EAGLE RIVER    FAIR      50  50  99 CALM      30.10R
LAND O LAKES   FAIR      46  44  94 CALM      30.12R
PHILLIPS       FAIR      50  50 100 CALM      30.11R FOG
TOMAHAWK       FAIR      51  49  95 CALM      30.12R
MEDFORD        FOG       53  53  99 CALM      30.11R VSB 1/2
MERRILL        FAIR      49  49 100 CALM      30.11R FOG
$$

WIZ029-030-035-036-043>047-230800-
CENTRAL WISCONSIN

CITY           SKY/WX    TMP DP  RH WIND       PRES   REMARKS
WAUSAU         FAIR      56  56 100 N3        30.09R
MOSINEE        FAIR      55  55 100 W5        30.12R
MARSHFIELD     FOG       52  52 100 CALM      30.10S VSB 1/4
STEVENS POINT  FAIR      53  53 100 CALM      30.12R
WAUPACA        FAIR      58  57  97 CALM      30.10S
WAUTOMA        FAIR      54  54 100 CALM      30.12R FOG
WISC RAPIDS    FOG       53  52  96 CALM      30.12S VSB 1/4
CAMP DOUGLAS   FOG       48  48 100 CALM      30.11R VSB 1/2
$$

WIZ011>013-019>022-031-037>040-048>050-230800-
NORTHEAST WISCONSIN

CITY           SKY/WX    TMP DP  RH WIND       PRES   REMARKS
ANTIGO         FAIR      54  54  99 W3        30.11R
SHAWANO        FAIR      62  57  85 SW6       30.08R
OCONTO         FAIR      58  56  91 W7        30.05R
STURGEON BAY   FAIR      57  54  89 S8        30.07R
GREEN BAY      FAIR      61  57  87 W8        30.08R
MANITOWOC      FAIR      60  57  89 W5        30.09R
APPLETON       FAIR      55  55 100 W8        30.08R
CLINTONVILLE   FAIR      60  56  89 W3        30.09R
OSHKOSH        FAIR      58  56  93 CALM      30.10R
$$

WIZ032>034-041-042-053>061-230800-
SOUTHWEST WISCONSIN

CITY           SKY/WX    TMP DP  RH WIND       PRES   REMARKS
LA CROSSE      FAIR      57  56  96 SE5       30.10R
SPARTA         FOG       48  48 100 CALM      30.11S VSB 3/4
VIROQUA        FAIR      57  57 100 S3        30.11S
BOSCOBEL       FOG       56  55  97 CALM      30.11S VSB 1/4
PRAIRIE DU CHI FAIR      58  56  95 E3        30.10S
PLATTEVILLE    FAIR      58  58 100 E8        30.11F
$$

WIZ056-057-062-063-064-067-068-230800-
SOUTH CENTRAL WISCONSIN

CITY           SKY/WX    TMP DP  RH WIND       PRES   REMARKS
REEDSBURG      FOG       54  54 100 CALM      30.10R VSB 1/4
BARABOO/DELLS    N/A     54  52  95 CALM      30.10S FOG
LONE ROCK      FOG       55  55 100 CALM      30.11R VSB<1/4
MINERAL POINT  FAIR      59  59 100 SE3       30.11S
MADISON        FOG       53  52  96 CALM      30.11R VSB 1/2
MIDDLETON      FAIR      54  54 100 CALM      30.11R
WATERTOWN      MOCLDY    52  52 100 CALM      30.11R FOG
MONROE         FAIR      61  55  82 CALM      30.11S
JANESVILLE     FOG       55  55 100 CALM      30.11R VSB 3/4
$$

WIZ051-052-058>065-066-070>072-230800-
SOUTHEAST WISCONSIN

CITY           SKY/WX    TMP DP  RH WIND       PRES   REMARKS
MILWAUKEE      FAIR      54  51  90 CALM      30.09S
WAUKESHA       FAIR      50  50 100 CALM      30.12R FOG
MILWAUKEE/TIMM FAIR      54  50  87 CALM      30.11R
RACINE         FAIR      47  46  97 W6        30.11S FOG
BURLINGTON     FOG       52  51  98 CALM      30.11R VSB 3/4
KENOSHA        FAIR      51  49  92 W3        30.10S FOG
FOND DU LAC    FAIR      53  52  96 SW3       30.11R FOG
SHEBOYGAN      FAIR      57  55  93 W5        30.09S
WEST BEND        N/A     52  52 100 CALM      30.10R FOG
JUNEAU         FAIR      54  53  99 CALM      30.12R FOG
$$

LSZ147-162-230800-
LAKE SUPERIOR

STATION/POSITION TIME  TEMP    WIND        PRES    WAVE
                       AIR SEA DIR/SP/G            HT/PER
                 (UTC) (F)     (DEG/KT/KT) (MB)    (FT/S)
W MID LAKE BUOY  0550   43 36  200/  6/  8 1017.3R   0
DEVILS ISLAND    0600   64     230/ 10/ 11 1017.6R
SAXON HARBOR     0630   57     180/  5/  7 1017.6R
$$

LMZ867-665-643>646-230800-
LAKE MICHIGAN

STATION/POSITION TIME  TEMP    WIND        PRES    WAVE
                       AIR SEA DIR/SP/G            HT/PER
                 (UTC) (F)     (DEG/KT/KT) (MB)    (FT/S)
N MID LAKE BUOY  0640   40 37  160/  8/  8 1017.7S
NORTHPORT PIER   0640   49     150/  2/  3 1017.3R
KEWAUNEE LAKESHO 0630   57     290/  4/  5 1017.5F
SHEBOYGAN LAKESH 0600   61     270/ 10/ 12 1018.5F
PORT WASHINGTON  0630   61     290/  7/  9 1019.6R
ATWATER BUOY     0607   54 47   CALM  /  2 1019.2    0
MILWAUKEE LAKESH 0630   59        CALM       N/A
S MID LAKE BUOY  0550   40 39  190/  2/  4 1019.9R   0
KENOSHA   LAKESH 0600   53                 1019.0
$$

TC  - TEMPERATURE IN CELSIUS
VSB - VISIBILITY IN STATUTE MILES
WCI - WIND CHILL INDEX
HX  - HEAT INDEX




USA.gov is the U.S. government's official web portal to all federal, state and local government web resources and services.